Location: DARK SKY Beskydy - Park tmavé oblohy, www.darkskybeskydy.cz
(49.4926°N, 18.5016°E)
Time: 23:29:27
(UTC+02:00)

ACS3 Solar Sail - Pass Details

Date: 21 June 2024
Orbit: 992 x 1023 km, 97.4° (Epoch: 12 July)

Event Time Altitude Azimuth Distance (km) Brightness Sun altitude
Exits shadow 22:40:51 - 185° (S) 2,878 6.8 -11.8°
Reaches altitude 10° 22:41:10 10° 186° (S) 2,762 6.7 -11.8°
Maximum altitude 22:47:15 54° 262° (W) 1,202 5.4 -12.3°
Drops below altitude 10° 22:53:20 10° 340° (NNW) 2,768 8.7 -12.7°
Sets 22:55:54 0° 345° (NNW) 3,720 9.7 -12.9°
